Time,TemperatureF,DewpointF,PressureIn,WindDirection,WindDirectionDegrees,WindSpeedMPH,WindSpeedGustMPH,Humidity,HourlyPrecipIn,Conditions,Clouds,dailyrainin,SoftwareType,DateUTC
2013-03-18 00:03:00,57.0,47.0,29.97,NE,49,6.0,10.0,68,0.00,,,0.00,,2013-03-18 04:03:00,
2013-03-18 00:13:00,57.0,47.0,29.97,NE,49,6.0,10.0,68,0.00,,,0.00,,2013-03-18 04:13:00,
2013-03-18 00:23:00,56.0,46.0,29.98,NE,50,4.0,7.0,68,0.00,,,0.00,,2013-03-18 04:23:00,
2013-03-18 00:33:00,56.0,46.0,29.98,NE,50,4.0,7.0,68,0.00,,,0.00,,2013-03-18 04:33:00,
2013-03-18 00:42:00,56.0,46.0,29.98,NE,50,4.0,7.0,68,0.00,,,0.00,,2013-03-18 04:42:00,
2013-03-18 00:52:00,53.0,43.0,29.98,NE,46,3.0,7.0,70,0.00,,,0.00,,2013-03-18 04:52:00,
2013-03-18 01:03:00,52.0,43.0,29.98,ENE,61,4.0,7.0,70,0.00,,,0.00,,2013-03-18 05:03:00,
2013-03-18 01:12:00,52.0,43.0,29.98,ENE,61,4.0,7.0,70,0.00,,,0.00,,2013-03-18 05:12:00,
2013-03-18 01:22:00,51.0,42.0,29.98,NE,52,4.0,8.0,71,0.00,,,0.00,,2013-03-18 05:22:00,
2013-03-18 01:32:00,51.0,43.0,29.99,NE,53,3.0,7.0,73,0.00,,,0.00,,2013-03-18 05:32:00,
2013-03-18 01:43:00,51.0,43.0,29.99,NE,53,3.0,7.0,73,0.00,,,0.00,,2013-03-18 05:43:00,
2013-03-18 01:52:00,50.0,42.0,29.98,ENE,64,2.0,6.0,73,0.00,,,0.00,,2013-03-18 05:52:00,
2013-03-18 02:02:00,50.0,42.0,29.98,NE,55,4.0,6.0,74,0.00,,,0.00,,2013-03-18 06:02:00,
2013-03-18 02:12:00,50.0,42.0,29.98,NE,55,4.0,6.0,74,0.00,,,0.00,,2013-03-18 06:12:00,
2013-03-18 02:22:00,49.0,41.0,29.99,NE,46,3.0,9.0,74,0.00,,,0.00,,2013-03-18 06:22:00,
2013-03-18 02:32:00,49.0,41.0,29.99,ENE,58,3.0,5.0,75,0.00,,,0.00,,2013-03-18 06:32:00,
2013-03-18 02:42:00,49.0,41.0,29.99,ENE,58,3.0,5.0,75,0.00,,,0.00,,2013-03-18 06:42:00,
2013-03-18 02:52:00,48.0,40.0,29.99,NE,46,3.0,6.0,75,0.00,,,0.00,,2013-03-18 06:52:00,
2013-03-18 03:02:00,48.0,41.0,30.00,ENE,61,3.0,6.0,76,0.00,,,0.00,,2013-03-18 07:02:00,
2013-03-18 03:12:00,48.0,41.0,30.00,ENE,61,3.0,6.0,76,0.00,,,0.00,,2013-03-18 07:12:00,
2013-03-18 03:23:00,48.0,41.0,30.00,NE,51,4.0,6.0,77,0.00,,,0.00,,2013-03-18 07:23:00,
2013-03-18 03:33:00,47.0,40.0,30.01,NE,50,3.0,6.0,77,0.00,,,0.00,,2013-03-18 07:33:00,
2013-03-18 03:42:00,47.0,40.0,30.01,NE,50,3.0,6.0,77,0.00,,,0.00,,2013-03-18 07:42:00,
2013-03-18 03:52:00,47.0,41.0,30.01,NE,55,4.0,7.0,78,0.00,,,0.00,,2013-03-18 07:52:00,
2013-03-18 04:02:00,47.0,41.0,30.00,NE,55,4.0,8.0,78,0.00,,,0.00,,2013-03-18 08:02:00,
2013-03-18 04:12:00,47.0,41.0,30.00,NE,55,4.0,8.0,78,0.00,,,0.00,,2013-03-18 08:12:00,
2013-03-18 04:22:00,47.0,41.0,30.00,ENE,58,3.0,6.0,79,0.00,,,0.00,,2013-03-18 08:22:00,
2013-03-18 04:32:00,47.0,41.0,29.99,NE,56,5.0,8.0,79,0.00,,,0.00,,2013-03-18 08:32:00,
2013-03-18 04:43:00,47.0,41.0,29.99,NE,56,5.0,8.0,79,0.00,,,0.00,,2013-03-18 08:43:00,
2013-03-18 04:52:00,47.0,41.0,30.00,ENE,65,2.0,7.0,80,0.00,,,0.00,,2013-03-18 08:52:00,
2013-03-18 05:02:00,46.0,40.0,30.00,NE,49,4.0,6.0,80,0.00,,,0.00,,2013-03-18 09:02:00,
2013-03-18 05:12:00,46.0,40.0,30.00,NE,49,4.0,6.0,80,0.00,,,0.00,,2013-03-18 09:12:00,
2013-03-18 05:22:00,46.0,41.0,30.01,ENE,64,4.0,8.0,81,0.00,,,0.00,,2013-03-18 09:22:00,
2013-03-18 05:33:00,46.0,41.0,30.01,NNE,27,2.0,6.0,82,0.00,,,0.00,,2013-03-18 09:33:00,
2013-03-18 05:43:00,46.0,41.0,30.01,NNE,27,2.0,6.0,82,0.00,,,0.00,,2013-03-18 09:43:00,
2013-03-18 05:53:00,46.0,41.0,30.01,NNE,32,2.0,6.0,84,0.00,,,0.00,,2013-03-18 09:53:00,
2013-03-18 06:04:00,45.0,41.0,30.02,NE,53,3.0,6.0,85,0.00,,,0.00,,2013-03-18 10:04:00,
2013-03-18 06:13:00,45.0,41.0,30.02,NE,53,3.0,6.0,85,0.00,,,0.00,,2013-03-18 10:13:00,
2013-03-18 06:23:00,45.0,41.0,30.02,NE,37,4.0,6.0,85,0.00,,,0.00,,2013-03-18 10:23:00,
2013-03-18 06:33:00,45.0,41.0,30.02,ENE,61,2.0,7.0,86,0.00,,,0.00,,2013-03-18 10:33:00,
2013-03-18 06:42:00,45.0,41.0,30.02,ENE,61,2.0,7.0,86,0.00,,,0.00,,2013-03-18 10:42:00,
2013-03-18 06:53:00,44.0,41.0,30.02,ENE,60,5.0,8.0,88,0.00,,,0.00,,2013-03-18 10:53:00,
2013-03-18 07:03:00,44.0,41.0,30.02,ENE,61,2.0,9.0,89,0.00,,,0.00,,2013-03-18 11:03:00,
2013-03-18 07:13:00,44.0,41.0,30.02,ENE,61,2.0,9.0,89,0.00,,,0.00,,2013-03-18 11:13:00,
2013-03-18 07:22:00,44.0,41.0,30.03,ENE,69,2.0,5.0,90,0.00,,,0.00,,2013-03-18 11:22:00,
2013-03-18 07:32:00,44.0,42.0,30.03,NE,42,3.0,7.0,91,0.00,,,0.00,,2013-03-18 11:32:00,
2013-03-18 07:42:00,44.0,42.0,30.03,NE,42,3.0,7.0,91,0.00,,,0.00,,2013-03-18 11:42:00,
2013-03-18 07:52:00,43.0,41.0,30.03,ENE,60,3.0,7.0,92,0.00,,,0.00,,2013-03-18 11:52:00,
2013-03-18 08:03:00,43.0,41.0,30.03,ENE,57,3.0,5.0,92,0.00,,,0.00,,2013-03-18 12:03:00,
2013-03-18 08:13:00,43.0,41.0,30.03,ENE,57,3.0,5.0,92,0.00,,,0.00,,2013-03-18 12:13:00,
2013-03-18 08:22:00,43.0,41.0,30.04,NE,53,2.0,5.0,92,0.00,,,0.00,,2013-03-18 12:22:00,
2013-03-18 08:33:00,43.0,41.0,30.04,ENE,59,2.0,5.0,93,0.00,,,0.00,,2013-03-18 12:33:00,
2013-03-18 08:43:00,43.0,41.0,30.04,ENE,59,2.0,5.0,93,0.00,,,0.00,,2013-03-18 12:43:00,
2013-03-18 08:52:00,43.0,41.0,30.04,NE,53,3.0,5.0,92,0.00,,,0.00,,2013-03-18 12:52:00,
2013-03-18 09:03:00,43.0,41.0,30.04,ENE,60,3.0,7.0,93,0.00,,,0.00,,2013-03-18 13:03:00,
2013-03-18 09:12:00,43.0,41.0,30.04,ENE,60,3.0,7.0,93,0.00,,,0.00,,2013-03-18 13:12:00,
2013-03-18 09:22:00,43.0,41.0,30.04,NE,46,3.0,5.0,92,0.00,,,0.00,,2013-03-18 13:22:00,
2013-03-18 09:33:00,43.0,41.0,30.04,ENE,69,2.0,7.0,92,0.00,,,0.00,,2013-03-18 13:33:00,
2013-03-18 09:42:00,43.0,41.0,30.04,ENE,69,2.0,7.0,92,0.00,,,0.00,,2013-03-18 13:42:00,
2013-03-18 09:52:00,43.0,41.0,30.04,ENE,61,3.0,6.0,92,0.00,,,0.00,,2013-03-18 13:52:00,
2013-03-18 10:03:00,43.0,41.0,30.04,ENE,64,3.0,8.0,92,0.00,,,0.00,,2013-03-18 14:03:00,
2013-03-18 10:12:00,43.0,41.0,30.04,ENE,64,3.0,8.0,92,0.00,,,0.00,,2013-03-18 14:12:00,
2013-03-18 10:22:00,43.0,41.0,30.04,ENE,64,3.0,8.0,92,0.00,,,0.00,,2013-03-18 14:22:00,
2013-03-18 10:32:00,43.0,41.0,30.04,NE,53,3.0,5.0,92,0.00,,,0.00,,2013-03-18 14:32:00,
2013-03-18 10:42:00,43.0,41.0,30.04,NE,53,3.0,5.0,92,0.00,,,0.00,,2013-03-18 14:42:00,
2013-03-18 10:52:00,43.0,41.0,30.04,ENE,68,1.0,6.0,92,0.00,,,0.00,,2013-03-18 14:52:00,
2013-03-18 11:02:00,43.0,41.0,30.03,NE,53,2.0,6.0,93,0.00,,,0.00,,2013-03-18 15:02:00,
2013-03-18 11:12:00,43.0,41.0,30.03,NE,53,2.0,6.0,93,0.00,,,0.00,,2013-03-18 15:12:00,
2013-03-18 11:22:00,43.0,41.0,30.03,NE,53,2.0,6.0,93,0.00,,,0.00,,2013-03-18 15:22:00,
2013-03-18 11:33:00,43.0,41.0,30.03,NE,55,3.0,7.0,94,0.00,,,0.00,,2013-03-18 15:33:00,
2013-03-18 11:43:00,43.0,41.0,30.03,NE,55,3.0,7.0,94,0.00,,,0.00,,2013-03-18 15:43:00,
2013-03-18 11:52:00,43.0,41.0,30.05,NE,55,1.0,4.0,94,0.01,,,0.01,,2013-03-18 15:52:00,
2013-03-18 12:03:00,43.0,41.0,30.04,ENE,57,2.0,5.0,94,0.01,,,0.01,,2013-03-18 16:03:00,
2013-03-18 12:12:00,43.0,41.0,30.04,ENE,57,2.0,5.0,94,0.01,,,0.01,,2013-03-18 16:12:00,
2013-03-18 12:23:00,43.0,41.0,30.02,ENE,57,3.0,5.0,94,0.01,,,0.01,,2013-03-18 16:23:00,
2013-03-18 12:33:00,44.0,42.0,30.01,NE,53,3.0,7.0,94,0.01,,,0.01,,2013-03-18 16:33:00,
2013-03-18 12:42:00,44.0,42.0,30.01,NE,53,3.0,7.0,94,0.01,,,0.01,,2013-03-18 16:42:00,
2013-03-18 12:52:00,44.0,42.0,30.01,ENE,57,2.0,5.0,93,0.00,,,0.01,,2013-03-18 16:52:00,
2013-03-18 13:03:00,44.0,42.0,30.01,NE,49,1.0,7.0,93,0.00,,,0.01,,2013-03-18 17:03:00,
2013-03-18 13:12:00,44.0,42.0,30.01,NE,49,1.0,7.0,93,0.00,,,0.01,,2013-03-18 17:12:00,
2013-03-18 13:22:00,45.0,43.0,30.00,ENE,58,3.0,6.0,93,0.00,,,0.01,,2013-03-18 17:22:00,
2013-03-18 13:33:00,45.0,43.0,29.99,NE,45,3.0,6.0,92,0.00,,,0.01,,2013-03-18 17:33:00,
2013-03-18 13:42:00,45.0,43.0,29.99,NE,45,3.0,6.0,92,0.00,,,0.01,,2013-03-18 17:42:00,
2013-03-18 13:52:00,45.0,43.0,29.98,ENE,59,4.0,7.0,92,0.00,,,0.01,,2013-03-18 17:52:00,
2013-03-18 14:02:00,45.0,43.0,29.97,ENE,57,4.0,7.0,91,0.00,,,0.01,,2013-03-18 18:02:00,
2013-03-18 14:12:00,45.0,43.0,29.97,ENE,57,4.0,7.0,91,0.00,,,0.01,,2013-03-18 18:12:00,
2013-03-18 14:22:00,45.0,42.0,29.96,ENE,57,3.0,5.0,90,0.00,,,0.01,,2013-03-18 18:22:00,
2013-03-18 14:32:00,45.0,42.0,29.95,ENE,65,2.0,5.0,90,0.00,,,0.01,,2013-03-18 18:32:00,
2013-03-18 14:42:00,45.0,42.0,29.95,ENE,65,2.0,5.0,90,0.00,,,0.01,,2013-03-18 18:42:00,
2013-03-18 14:52:00,45.0,42.0,29.95,ENE,63,2.0,4.0,90,0.00,,,0.01,,2013-03-18 18:52:00,
2013-03-18 15:03:00,45.0,42.0,29.95,ENE,64,2.0,3.0,90,0.00,,,0.01,,2013-03-18 19:03:00,
2013-03-18 15:12:00,45.0,42.0,29.95,ENE,64,2.0,3.0,90,0.00,,,0.01,,2013-03-18 19:12:00,
2013-03-18 15:22:00,45.0,43.0,29.93,ENE,59,2.0,4.0,91,0.00,,,0.01,,2013-03-18 19:22:00,
2013-03-18 15:33:00,45.0,43.0,29.93,ENE,59,1.0,5.0,92,0.00,,,0.01,,2013-03-18 19:33:00,
2013-03-18 15:42:00,45.0,43.0,29.93,ENE,59,1.0,5.0,92,0.00,,,0.01,,2013-03-18 19:42:00,
2013-03-18 15:52:00,45.0,43.0,29.92,ENE,57,1.0,4.0,93,0.00,,,0.01,,2013-03-18 19:52:00,
2013-03-18 16:03:00,45.0,43.0,29.91,ENE,57,2.0,4.0,93,0.00,,,0.01,,2013-03-18 20:03:00,
2013-03-18 16:12:00,45.0,43.0,29.91,ENE,57,2.0,4.0,93,0.00,,,0.01,,2013-03-18 20:12:00,
2013-03-18 16:23:00,45.0,43.0,29.90,ENE,57,1.0,4.0,94,0.00,,,0.01,,2013-03-18 20:23:00,
2013-03-18 16:33:00,45.0,43.0,29.89,ENE,66,2.0,5.0,94,0.01,,,0.02,,2013-03-18 20:33:00,
2013-03-18 16:42:00,45.0,43.0,29.89,ENE,66,2.0,5.0,94,0.01,,,0.02,,2013-03-18 20:42:00,
2013-03-18 16:52:00,45.0,43.0,29.89,ENE,64,1.0,4.0,94,0.01,,,0.02,,2013-03-18 20:52:00,
2013-03-18 17:02:00,45.0,43.0,29.89,ENE,64,1.0,4.0,94,0.01,,,0.02,,2013-03-18 21:02:00,
2013-03-18 17:12:00,45.0,43.0,29.89,ENE,64,1.0,4.0,94,0.01,,,0.02,,2013-03-18 21:12:00,
2013-03-18 17:22:00,45.0,43.0,29.89,ENE,64,1.0,3.0,94,0.01,,,0.02,,2013-03-18 21:22:00,
2013-03-18 17:33:00,45.0,44.0,29.88,East,80,1.0,4.0,95,0.00,,,0.02,,2013-03-18 21:33:00,
2013-03-18 17:43:00,45.0,44.0,29.88,East,80,1.0,4.0,95,0.00,,,0.02,,2013-03-18 21:43:00,
2013-03-18 17:52:00,45.0,44.0,29.88,ENE,63,1.0,3.0,95,0.00,,,0.02,,2013-03-18 21:52:00,
2013-03-18 18:03:00,45.0,44.0,29.88,ENE,63,1.0,3.0,95,0.00,,,0.02,,2013-03-18 22:03:00,
2013-03-18 18:13:00,45.0,44.0,29.88,ENE,63,1.0,3.0,95,0.00,,,0.02,,2013-03-18 22:13:00,
2013-03-18 18:23:00,45.0,44.0,29.89,NE,46,1.0,4.0,95,0.01,,,0.03,,2013-03-18 22:23:00,
2013-03-18 18:33:00,45.0,44.0,29.89,NE,46,1.0,3.0,95,0.02,,,0.04,,2013-03-18 22:33:00,
2013-03-18 18:42:00,45.0,44.0,29.89,NE,46,1.0,3.0,95,0.02,,,0.04,,2013-03-18 22:42:00,
2013-03-18 18:52:00,45.0,44.0,29.87,ENE,64,2.0,3.0,95,0.03,,,0.05,,2013-03-18 22:52:00,
2013-03-18 19:03:00,45.0,44.0,29.90,NNE,24,2.0,4.0,95,0.02,,,0.05,,2013-03-18 23:03:00,
2013-03-18 19:13:00,45.0,44.0,29.90,NNE,24,2.0,4.0,95,0.02,,,0.05,,2013-03-18 23:13:00,
2013-03-18 19:23:00,44.0,43.0,29.89,NE,52,4.0,7.0,95,0.02,,,0.05,,2013-03-18 23:23:00,
2013-03-18 19:33:00,44.0,43.0,29.89,NE,52,4.0,7.0,95,0.02,,,0.05,,2013-03-18 23:33:00,
2013-03-18 19:42:00,44.0,43.0,29.89,NE,52,4.0,7.0,95,0.02,,,0.05,,2013-03-18 23:42:00,
2013-03-18 19:52:00,43.0,41.0,29.89,NNE,28,3.0,5.0,94,0.00,,,0.05,,2013-03-18 23:52:00,
2013-03-18 20:03:00,43.0,42.0,29.90,WNW,292,15.0,22.0,95,0.00,,,0.05,,2013-03-19 00:03:00,
2013-03-18 20:12:00,43.0,42.0,29.90,WNW,292,15.0,22.0,95,0.00,,,0.05,,2013-03-19 00:12:00,
2013-03-18 20:23:00,43.0,42.0,29.95,NNE,29,2.0,12.0,95,0.11,,,0.16,,2013-03-19 00:23:00,
2013-03-18 20:32:00,43.0,42.0,29.94,ENE,57,0.0,4.0,95,0.23,,,0.28,,2013-03-19 00:32:00,
2013-03-18 20:42:00,43.0,42.0,29.94,ENE,57,0.0,4.0,95,0.23,,,0.28,,2013-03-19 00:42:00,
2013-03-18 20:52:00,43.0,42.0,29.95,ENE,59,0.0,1.0,95,0.28,,,0.33,,2013-03-19 00:52:00,
2013-03-18 21:02:00,43.0,42.0,29.90,ESE,122,5.0,10.0,95,0.30,,,0.35,,2013-03-19 01:02:00,
2013-03-18 21:12:00,43.0,42.0,29.90,ESE,122,5.0,10.0,95,0.30,,,0.35,,2013-03-19 01:12:00,
2013-03-18 21:23:00,43.0,42.0,29.84,ESE,105,8.0,15.0,96,0.20,,,0.36,,2013-03-19 01:23:00,
2013-03-18 21:33:00,43.0,42.0,29.86,East,100,0.0,4.0,96,0.08,,,0.36,,2013-03-19 01:33:00,
2013-03-18 21:43:00,43.0,42.0,29.86,East,100,0.0,4.0,96,0.08,,,0.36,,2013-03-19 01:43:00,
2013-03-18 21:52:00,43.0,42.0,29.87,East,98,0.0,3.0,96,0.03,,,0.36,,2013-03-19 01:52:00,
2013-03-18 22:03:00,43.0,42.0,29.86,SE,127,4.0,7.0,96,0.00,,,0.36,,2013-03-19 02:03:00,
2013-03-18 22:13:00,43.0,42.0,29.86,SE,127,4.0,7.0,96,0.00,,,0.36,,2013-03-19 02:13:00,
2013-03-18 22:23:00,43.0,42.0,29.84,SE,129,0.0,7.0,96,0.00,,,0.36,,2013-03-19 02:23:00,
2013-03-18 22:33:00,43.0,42.0,29.83,SE,129,0.0,2.0,96,0.00,,,0.36,,2013-03-19 02:33:00,
2013-03-18 22:42:00,43.0,42.0,29.83,SE,129,0.0,2.0,96,0.00,,,0.36,,2013-03-19 02:42:00,
2013-03-18 22:52:00,43.0,42.0,29.83,SE,129,0.0,1.0,96,0.00,,,0.36,,2013-03-19 02:52:00,
2013-03-18 23:02:00,43.0,42.0,29.84,SE,129,0.0,3.0,96,0.00,,,0.36,,2013-03-19 03:02:00,
2013-03-18 23:12:00,43.0,42.0,29.84,SE,129,0.0,3.0,96,0.00,,,0.36,,2013-03-19 03:12:00,
2013-03-18 23:22:00,43.0,42.0,29.86,WNW,300,1.0,3.0,96,0.00,,,0.36,,2013-03-19 03:22:00,
2013-03-18 23:33:00,43.0,42.0,29.87,WNW,300,0.0,2.0,96,0.00,,,0.36,,2013-03-19 03:33:00,
2013-03-18 23:43:00,43.0,42.0,29.87,WNW,300,0.0,2.0,96,0.00,,,0.36,,2013-03-19 03:43:00,
2013-03-18 23:53:00,43.0,42.0,29.87,WNW,300,0.0,3.0,96,0.00,,,0.36,,2013-03-19 03:53:00,